Regional Weather Roundup
Issued by NWS Wakefield, VA

Home | Current Version | Previous Version | Text Only | Print | Product List | Glossary Off
Versions: 1 2 3 4 5 6 7 8 9 10 11 12 13 14 15 16 17 18 19 20 21 22 23 24 25 26 27 28 29 30 31 32 33 34 35 36 37 38 39 40 41 42 43 44 45 46 47 48 49 50

000
ASUS41 KAKQ 221510
RWRAKQ

REGIONAL WEATHER ROUNDUP
NATIONAL WEATHER SERVICE WAKEFIELD VA
1100 AM EDT FRI AUG 22 2014

Note: "fair" indicates few or no clouds below 12,000 feet with no
significant weather and/or obstructions to visibility. * = Denotes
station may not report precipitation (e.g., rain,snow,etc.),
thunder or fog.

VAZ042-051-052>054-056-221600-
NORTHERN VIRGINIA

CITY           SKY/WX    TMP DP  RH WIND       PRES   REMARKS
WASH NATIONAL  LGT RAIN  79  69  71 NE7       30.00S
DULLES         LGT RAIN  74  68  81 NE3       30.01F
FORT BELVOIR   CLOUDY    75  70  85 CALM      30.00F
QUANTICO       CLOUDY    78  67  68 N6        30.00S
FREDERICKSBRG* LGT RAIN  79  68  68 NE5       30.00R
STAFFORD*      LGT RAIN  77  72  84 CALM      30.05R
WARRENTON      CLOUDY    78  74  88 CALM      30.01F
CULPEPER*      CLOUDY   N/A N/A N/A CALM      30.02S
MANASSAS*      SUNNY     77  72  83 E3        30.01S
LEESBURG*      LGT RAIN  73  72  94 CALM      30.02F
WINCHESTER     RAIN      72  68  88 W5        30.04R
$$

VAZ048-049-060>072-079>083-221600-
CENTRAL AND SOUTH CENTRAL VIRGINIA...AND NORTH CENTRAL NORTH CAROLINA

CITY           SKY/WX    TMP DP  RH WIND       PRES   REMARKS
RICHMOND       CLOUDY    81  68  64 CALM      30.00F
CHESTERFIELD*  PTSUNNY   81  61  50 NE3       30.02F
HANOVER        CLOUDY    79  70  74 CALM      30.02S
TAPPAHANNOCK*  CLOUDY    79  67  66 CALM      30.00S
CHARLOTTSVILLE LGT RAIN  73  70  90 CALM      30.02S
ORANGE*        CLOUDY    73  70  88 CALM      30.03F
LOUISA*        CLOUDY    79  70  73 CALM      30.01F
FARMVILLE*     LGT RAIN  79  72  78 CALM      30.00S
SOUTH HILL*    CLOUDY    79  75  89 CALM      30.07S
ROANOKE RAPIDS CLOUDY    79  72  78 NE5       30.01S
RALEIGH        PTSUNNY   85  71  63 VRB5      30.03F
$$

VAZ088>098-221600-
SOUTHEAST VIRGINIA

CITY           SKY/WX    TMP DP  RH WIND       PRES   REMARKS
NORFOLK        MOSUNNY   85  69  58 N5        29.97S
VIRGINIA BEACH PTSUNNY   84  71  65 N10       29.96S
NORFOLK NAVAL  PTSUNNY   85  71  63 W10       29.99S
WEST POINT*    MOSUNNY   84  68  58 W6        30.00F
NEWPORT NEWS   MOSUNNY   87  69  54 NW7       29.98F
LANGLEY AFB    MOSUNNY   83  70  65 VRB7      29.98S
FORT EUSTIS    MOSUNNY   82  66  59 W8        29.97F
WILLIAMSBURG*  PTSUNNY   86  72  62 NW6       30.00S
FRANKLIN*      MOSUNNY   82  70  65 NE5       30.00F
WAKEFIELD      PTSUNNY   83  68  60 VRB5      30.00F
$$

VAZ020-022-025-037-045-221600-
WESTERN AND SOUTHWEST VIRGINIA

CITY           SKY/WX    TMP DP  RH WIND       PRES   REMARKS
STAUNTON*      DRIZZLE   71  69  92 S5        30.06F
HOT SPRINGS VA CLOUDY    63  63 100 W17G23    30.18F FOG
LYNCHBURG        N/A    N/A N/A N/A CALM      30.07S
DANVILLE       PTSUNNY   83  71  67 NW6       30.04S
MARTINSVILLE   PTSUNNY   83  71  67 CALM      30.08F
ROANOKE        LGT RAIN  74  69  85 W5        30.08F
BLACKSBURG     LGT RAIN  72  72 100 CALM      30.15F
DUBLIN*        LGT RAIN  76  72  88 CALM      30.14F
MARION*        CLOUDY    74  71  92 W9        30.19S FOG
HILLSVILLE*    CLOUDY    74  69  83 NW10G20   30.17R
RICHLANDS*     CLOUDY    76  72  85 W9        30.18S
WISE*          PTSUNNY   77  73  88 W6        30.20S
ABINGDON*      CLOUDY    76  74  94 W9        30.17S
$$

MDZ021>025-VAZ099-100-221600-
SOUTHERN MARYLAND AND THE DELMARVA PENINSULA

CITY           SKY/WX    TMP DP  RH WIND       PRES   REMARKS
PATUXENT RIVER PTSUNNY   81  72  74 NE8       29.98S
BAY BRIDGE APT   N/A     77  68  73 N7        29.99S
LEONARDTOWN    PTSUNNY   79  70  73 NE3       30.00S
DOVER          CLOUDY    77  73  88 NE10      29.99S
GEORGETOWN     CLOUDY    81  70  69 E10       29.98S
EASTON         PTSUNNY   79  77  94 NE5       30.02F
CAMBRIDGE      MOSUNNY   79  70  73 N5        29.97S
SALISBURY      MOSUNNY   83  70  64 CALM      29.97S
OCEAN CITY     PTSUNNY   80  73  79 S3        29.97R
WALLOPS ISLAND MOSUNNY   82  73  74 E7        29.97F
ACCOMACK*      PTSUNNY   81  72  74 NW7       29.96F
$$

NCZ012>017-030>032-221600-
EASTERN NORTH CAROLINA

CITY           SKY/WX    TMP DP  RH WIND       PRES   REMARKS
ELIZABETH CITY SUNNY     84  73  69 NW8       29.98S
AHOSKIE*       PTSUNNY   80  70  70 N3        30.00F
EDENTON*       SUNNY     82  73  73 N7        29.99S
CURRITUCK*     SUNNY     85  71  61 N3        29.98F
KILL DEVIL HLS SUNNY     82  72  72 W8        29.97S
MANTEO         SUNNY     81  70  69 NW10      29.98S
CAPE HATTERAS  MOSUNNY   82  74  76 VRB7      29.99S
GOLDSBORO      SUNNY     87  74  66 NW8       30.00S HX  96
WASHINGTON     SUNNY     85  71  63 NW8       30.01S
GREENVILLE     SUNNY     86  73  66 N5        30.02F
NEW BERN       SUNNY     89  72  56 NW7       30.02R HX  96
WILMINGTON     SUNNY     89  72  56 W7        30.03S HX  96
$$

VAZ048-221600-
ELSEWHERE

CITY           SKY/WX    TMP DP  RH WIND       PRES   REMARKS
HARRISBURG PA  CLOUDY    74  69  85 SE3       30.01F
BALTIMORE      CLOUDY    76  69  79 NE8       30.00S
ANNAPOLIS        N/A     78  70  76 CALM      29.99S
ANDREWS AFB    DRIZZLE   75  72  88 NE3       30.00F
WILMINGTON DE  PTSUNNY   75  67  76 E12       30.03S
PHILADELPHIA   CLOUDY    74  67  78 E8        30.03S
WILDWOOD NJ*   CLOUDY    73  66  78 E9        30.01S
ATLANTIC CITY  CLOUDY    75  67  76 E9        30.02R
HENDERSON NC   SUNNY     83  70  66 N7        30.03F
GREENSBORO     CLOUDY    86  70  58 VRB3      30.06S
ROCKY MOUNT    SUNNY     86  72  62 NW6       30.01F
FAYETTEVILLE   PTSUNNY   89  71  55 N7        30.03S HX  95
CHARLOTTE      PTSUNNY   88  68  51 N7        30.07S
$$

VAZ100-221600-
MARINE

STATION/POSITION TIME  TEMP    WIND        PRES    WAVE   SWELL
                       AIR SEA DIR/SP/G            HT/PER HT/PER
                 (UTC) (F)     (DEG/KT/KT) (MB)    (FT/S) (FT/S)
44066 TX TWR #4  1500   72 72   70/ 12/ 14 1016.5R   3/ 8   3/ 8
CAPE MAY NJ      1500   75 80   70/  6/ 10 1015.2S
LEWES DE         1500   74 75   60/ 10/ 11 1015.2R
15NM E FENWICK I 1500   75 75              1015.0R   3/ 7
OCEAN-CITY-INLET 1500   76 76  200/  2/  3 1014.5R
WACHAPREAGUE VA  1500   81 81   10/  3/  6 1014.6R
THOMAS POINT MD  1500   74 78   10/  8/  9 1016.0S
GOOSES REEF MD   1500   76      50/  6/  8 1015.9F
COVE POINT MD    1500   76      10/  8/ 10 1015.3S
SOLOMONS ISLAND  1500      80                N/A
BISHOPS HEAD MD  1500   78 80   30/  9/ 10 1014.8R
PINEY POINT MD   1500          320/  3/  3   N/A
POTOMAC MD       1500   78      40/  8/  8 1014.6F
CAMBRIDGE MD     1500   76 79   60/  2/  3 1015.1R
LEWISETTA VA     1500   78 80   40/  3/  4 1014.7F
RAPPAHANNOCK LGT 1500          330/ 12/ 14 1015.5S
STINGRAY PT      1500   79     350/  4/  6 1015.9S
YORK RVR RNG VA  1500   79     350/ 10/ 12 1014.7S
YORKTOWN VA      1500   79 81  300/  9/ 10 1015.0F
JAMESTOWN VA     1500   77     280/  8/ 10   N/A
DOMINION TERM VA 1500   79     300/ 13/ 15 1015.2F
KIPTOPEKE VA     1500      82  340/ 12/ 13   N/A
CHES BAY BRIDGE  1500   80 79  300/  9/ 10 1014.6S
CAPE HENRY VA    1500   79     310/ 11/ 12 1013.9F
CHESAPEAKE LGHT  1400   80     310/ 14/ 15 1015.2F
WILLOUBY STN VA  1500   81     320/  6/  6 1014.0F
S CRANEY ISL VA  1500          280/  8/ 12 1015.0S
CAPE HENRY BUOY  1500      79                N/A     2/ 7
1ST LANDING BUOY 1500   79     320/ 10/ 12 1014.6F
CAPE CHARLES BUO 1500      78                N/A     2/ 7   2/ 7
OFFSHORE WE BUOY 1500      78                N/A     2/ 7   2/ 7
64NM E OF VA BCH 1500   78 78  310/ 12/ 14 1014.1R   2/ 7   2/ 7
DUCK PIER NC     1500   80 79  290/  8/ 10 1014.4S
44056 DUCK FRF   1500                        N/A     1/ 6
OREGON INLET NC  1500   82 83  290/  7/ 10 1015.2R
HATTERAS NC      1500   82 82  270/  8/  9 1016.1R
DIAMOND SHLS NC  1500   79     280/  6/  8 1015.5R   2/ 9   2/ 9
CAPE LOOKOUT NC  1500   85     270/  9/ 11 1016.1S
$$


USA.gov is the U.S. government's official web portal to all federal, state and local government web resources and services.